K7ZMC Weather Reports


Display with metric or nautical units.
time (UTC)temp
F
wind
direction
speed
MPH
gust
MPH
rain 1hr
in
rain 24hr
in
rain mn
in
humidity
%
barometer
mb
20260507164529 68 242 7.0 12.0 0.00 0.00 0.00 35 1014.6
20260507163030 67 234 6.0 10.0 0.00 0.00 0.00 38 1014.8
20260507161529 66 199 5.0 11.0 0.00 0.00 0.00 41 1014.7
20260507160022 65 234 7.0 11.0 0.00 0.00 0.00 42 1014.8
20260507154520 64 221 6.0 12.0 0.00 0.00 0.00 48 1014.8
20260507153022 63 236 7.0 12.0 0.00 0.00 0.00 50 1014.7
20260507151516 62 243 6.0 10.0 0.00 0.00 0.00 53 1014.9
20260507150014 62 217 5.0 8.0 0.00 0.00 0.00 53 1014.7
20260507144515 61 229 6.0 12.0 0.00 0.00 0.00 55 1014.6
20260507143012 60 257 7.0 11.0 0.00 0.00 0.00 55 1014.6
20260507141510 59 230 8.0 11.0 0.00 0.00 0.00 58 1014.5
20260507140009 59 225 4.0 7.0 0.00 0.00 0.00 61 1014.4
20260507134509 57 221 5.0 7.0 0.00 0.00 0.00 64 1014.2
20260507133008 53 209 4.0 8.0 0.00 0.00 0.00 74 1014.2
20260507131515 51 233 3.0 4.0 0.00 0.00 0.00 77 1014.1
20260507130005 49 236 3.0 5.0 0.00 0.00 0.00 79 1014.0
20260507124505 49 192 1.0 2.0 0.00 0.00 0.00 80 1014.0
20260507123003 50 250 1.0 3.0 0.00 0.00 0.00 78 1013.9
20260507121604 49 21 0.0 5.0 0.00 0.00 0.00 79 1013.8
20260507114556 52 148 1.0 3.0 0.00 0.00 0.00 76 1013.6
20260507113055 53 225 5.0 8.0 0.00 0.00 0.00 74 1013.4
20260507111553 53 161 1.0 3.0 0.00 0.00 0.00 74 1013.6
20260507111518 53 163 1.0 3.0 0.00 0.00 0.00 74 1013.6
20260507110052 53 86 2.0 3.0 0.00 0.00 0.00 74 1013.6
20260507104555 53 188 1.0 4.0 0.00 0.00 0.00 73 1013.5
20260507103049 53 208 0.0 4.0 0.00 0.00 0.00 72 1013.4
20260507101557 52 146 2.0 4.0 0.00 0.00 0.00 75 1013.3
20260507100055 55 242 3.0 6.0 0.00 0.00 0.00 70 1013.0
20260507094543 54 189 2.0 4.0 0.00 0.00 0.00 71 1013.1
20260507093042 56 209 0.0 3.0 0.00 0.00 0.00 69 1013.2
20260507091541 54 236 6.0 9.0 0.00 0.00 0.00 73 1013.0
20260507090039 56 215 7.0 11.0 0.00 0.00 0.00 69 1013.2
20260507084544 57 187 5.0 11.0 0.00 0.00 0.00 67 1013.3
20260507083048 56 178 1.0 3.0 0.00 0.00 0.00 69 1013.2
20260507081530 57 159 3.0 5.0 0.00 0.00 0.00 68 1013.0
20260507080029 57 186 2.0 4.0 0.00 0.00 0.00 67 1013.0
20260507074524 60 217 5.0 7.0 0.00 0.00 0.00 60 1012.9
20260507073021 63 235 8.0 12.0 0.00 0.00 0.00 56 1012.7
20260507071518 63 250 4.0 9.0 0.00 0.00 0.00 56 1012.7
20260507070016 61 290 2.0 5.0 0.00 0.00 0.00 56 1012.5
20260507064522 62 218 3.0 5.0 0.00 0.00 0.00 55 1012.4
20260507063019 63 184 3.0 7.0 0.00 0.00 0.00 53 1012.0
20260507061514 66 250 3.0 8.0 0.00 0.00 0.00 45 1011.9
20260507060019 68 221 5.0 9.0 0.00 0.00 0.00 41 1011.8
20260507054513 66 249 5.0 7.0 0.00 0.00 0.00 45 1011.9
20260507053013 67 67 2.0 7.0 0.00 0.00 0.00 47 1011.8
20260507051513 68 111 2.0 9.0 0.00 0.00 0.00 39 1011.7
20260507050012 68 238 6.0 9.0 0.00 0.00 0.00 37 1011.6
20260507044511 69 233 5.0 7.0 0.00 0.00 0.00 38 1011.7
20260507043011 72 346 1.0 3.0 0.00 0.00 0.00 37 1011.5
20260507041525 74 145 0.0 4.0 0.00 0.00 0.00 32 1011.4
20260507040010 75 237 6.0 13.0 0.00 0.00 0.00 31 1011.1
20260507034515 71 225 6.0 8.0 0.00 0.00 0.00 37 1011.0
20260507033009 74 238 3.0 6.0 0.00 0.00 0.00 33 1010.9
20260507031508 73 194 2.0 4.0 0.00 0.00 0.00 36 1010.8
20260507030006 73 103 0.0 3.0 0.00 0.00 0.00 39 1010.5
20260507024507 74 84 1.0 3.0 0.00 0.00 0.00 39 1010.3
20260507023008 76 138 1.0 3.0 0.00 0.00 0.00 40 1010.2
20260507021506 78 304 1.0 5.0 0.00 0.00 0.00 32 1010.1
20260507020006 80 278 3.0 10.0 0.00 0.00 0.00 30 1010.0
20260507014510 78 281 3.0 6.0 0.00 0.00 0.00 32 1009.8
20260507013005 79 315 2.0 6.0 0.00 0.00 0.00 32 1009.8
20260507011504 80 322 1.0 6.0 0.00 0.00 0.00 35 1009.7
20260507010004 80 275 4.0 10.0 0.00 0.00 0.00 42 1009.4
20260507004510 80 163 9.0 15.0 0.00 0.00 0.00 42 1009.2
20260507003003 81 188 10.0 17.0 0.00 0.00 0.00 41 1009.0
20260507001502 81 184 10.0 20.0 0.00 0.00 0.00 41 1009.0
20260507000002 82 175 12.0 18.0 0.00 0.00 0.00 39 1008.8
20260506234501 83 204 13.0 20.0 0.00 0.00 0.00 34 1008.8
20260506233001 84 162 12.0 20.0 0.00 0.00 0.00 34 1008.8
20260506231600 84 205 13.0 21.0 0.00 0.00 0.00 34 1008.9
20260506230100 83 207 9.0 20.0 0.00 0.00 0.00 35 1009.0
20260506224557 83 183 11.0 19.0 0.00 0.00 0.00 35 1009.4
20260506223058 83 205 11.0 18.0 0.00 0.00 0.00 32 1009.6
20260506221555 83 175 9.0 17.0 0.00 0.00 0.00 32 1009.8
20260506220057 85 217 7.0 13.0 0.00 0.00 0.00 29 1010.0
20260506214553 84 207 8.0 15.0 0.00 0.00 0.00 30 1010.0
20260506213108 83 190 9.0 19.0 0.00 0.00 0.00 31 1010.2
20260506211604 83 209 9.0 19.0 0.00 0.00 0.00 30 1010.4
20260506210051 83 166 12.0 21.0 0.00 0.00 0.00 33 1010.7
20260506204556 83 227 10.0 15.0 0.00 0.00 0.00 33 1010.7
20260506203052 83 196 11.0 20.0 0.00 0.00 0.00 33 1010.8
20260506201558 83 188 12.0 21.0 0.00 0.00 0.00 34 1010.8
20260506200048 82 188 17.0 23.0 0.00 0.00 0.00 34 1011.0
20260506194556 82 206 10.0 17.0 0.00 0.00 0.00 36 1011.2
20260506193044 81 191 10.0 17.0 0.00 0.00 0.00 36 1011.3
20260506191545 80 194 10.0 18.0 0.00 0.00 0.00 39 1011.3
20260506190037 79 188 10.0 21.0 0.00 0.00 0.00 40 1011.3
20260506184535 78 180 15.0 22.0 0.00 0.00 0.00 41 1011.4
20260506183042 77 210 11.0 20.0 0.00 0.00 0.00 43 1011.4
20260506181534 77 202 13.0 18.0 0.00 0.00 0.00 42 1011.6
20260506180035 76 194 10.0 16.0 0.00 0.00 0.00 42 1011.8
20260506174530 76 201 9.0 20.0 0.00 0.00 0.00 44 1011.8
20260506173028 75 219 9.0 16.0 0.00 0.00 0.00 45 1011.9
20260506171530 74 184 8.0 13.0 0.00 0.00 0.00 48 1012.1
20260506170024 73 232 8.0 14.0 0.00 0.00 0.00 49 1012.3